Location: Unspecified
(0.0000°N, 0.0000°E)
Time: 13:26:59
(UTC+00:00)

N. Korean satellite - Pass Details

Date: 01 April 2020
Orbit: 454 x 507 km, 97.2° (Epoch: 01 April)

Event Time Altitude Azimuth Distance (km) Brightness Sun altitude
Rises 05:23:02 0° 9° (N) 2,450 10.3 -10.2°
Reaches altitude 10° 05:25:03 10° 7° (N) 1,582 9.3 -9.7°
Maximum altitude 05:28:26 78° 282° (WNW) 469 6.3 -8.8°
Drops below altitude 10° 05:31:52 10° 194° (SSW) 1,602 9.0 -8.0°
Sets 05:33:55 0° 193° (SSW) 2,485 10.0 -7.5°
